Weather History for Tarboro, NC

Change the Weather History Date:

Sunday, December 23, 2012

  Actual Average Record
Temperature  
Mean Temperature 40 °F -  
Max Temperature 56 °F 55 °F 76 °F (2013)
Min Temperature 23 °F 31 °F 10 °F (1989)
Degree Days  
Heating Degree Days 26    
Moisture  
Dew Point 25 °F    
Average Humidity 66    
Maximum Humidity 95    
Minimum Humidity 25    
Precipitation  
Precipitation 0.00 in - - ()
Sea Level Pressure  
Sea Level Pressure 30.08 in    
Wind  
Wind Speed 2 mph (SW)    
Max Wind Speed 12 mph    
Max Gust Speed -    
Visibility 10 miles    
Events      
Averages and records for this station are not official NWS values.
T = Trace of Precipitation, MM = Missing Value Source: NWS Daily Summary

Daily Weather History Graph

Daily Weather History Graph

Search for Another Location

Airport:

Trip Planner

Search our weather history database for the weather conditions in past years. The results will help you decide how hot, cold, wet, or windy it might be!

Date:

Astronomy

Dec. 23, 2012 Rise Set
Actual Time 7:17 AM EST 5:01 PM EST
Civil Twilight 6:49 AM EST 5:29 PM EST
Nautical Twilight 6:17 AM EST 6:01 PM EST
Astronomical Twilight 5:46 AM EST 6:33 PM EST
Moon 1:47 PM EST (12/23) 3:02 AM EST (12/23)
Length of Visible Light 10h 40m
Length of Day
9h 43m
Waxing Gibbous, 81% of the Moon is Illuminated
Dec 23
Waxing Gibbous
Dec 28
Full
Jan 4
Last Quarter
Jan 11
New
Jan 18
First Quarter

Hourly Weather History & Observations

Time (EST) Temp. Windchill Dew Point Humidity Pressure Visibility Wind Dir Wind Speed Gust Speed Precip Events Conditions
12:15 AM 28.2 °F - 25.9 °F 91% 30.08 in 10.0 mi Calm Calm - N/A   Clear
12:35 AM 28.0 °F - 26.2 °F 93% 30.08 in 10.0 mi Calm Calm - N/A   Clear
12:55 AM 27.9 °F - 26.1 °F 93% 30.08 in 10.0 mi Calm Calm - N/A   Clear
1:15 AM 27.9 °F - 25.7 °F 92% 30.09 in 10.0 mi Calm Calm - N/A   Clear
1:35 AM 27.9 °F - 25.7 °F 92% 30.09 in 10.0 mi Calm Calm - N/A   Clear
1:55 AM 28.2 °F - 26.4 °F 93% 30.10 in 10.0 mi Calm Calm - N/A   Clear
2:15 AM 29.5 °F - 27.1 °F 91% 30.10 in 10.0 mi Calm Calm - N/A   Clear
2:35 AM 28.2 °F - 25.7 °F 90% 30.10 in 10.0 mi Calm Calm - N/A   Clear
2:55 AM 27.5 °F - 25.5 °F 92% 30.11 in 10.0 mi Calm Calm - N/A   Clear
3:15 AM 27.0 °F - 24.6 °F 91% 30.11 in 10.0 mi Calm Calm - N/A   Clear
3:35 AM 27.0 °F - 25.0 °F 92% 30.11 in 10.0 mi Calm Calm - N/A   Clear
3:55 AM 26.8 °F - 25.0 °F 93% 30.11 in 10.0 mi Calm Calm - N/A   Clear
4:15 AM 26.2 °F - 24.1 °F 92% 30.11 in 10.0 mi Calm Calm - N/A   Clear
4:35 AM 25.3 °F - 23.5 °F 93% 30.10 in 10.0 mi Calm Calm - N/A   Clear
4:55 AM 25.7 °F - 24.3 °F 94% 30.10 in 10.0 mi Calm Calm - N/A   Clear
5:15 AM 24.8 °F - 23.2 °F 94% 30.11 in 10.0 mi Calm Calm - N/A   Clear
5:35 AM 25.0 °F - 23.5 °F 94% 30.11 in 10.0 mi Calm Calm - N/A   Clear
5:55 AM 24.3 °F - 22.8 °F 94% 30.12 in 10.0 mi Calm Calm - N/A   Clear
6:15 AM 24.1 °F - 22.5 °F 94% 30.12 in 10.0 mi Calm Calm - N/A   Clear
6:35 AM 24.8 °F - 23.4 °F 94% 30.13 in 10.0 mi Calm Calm - N/A   Clear
6:55 AM 24.1 °F - 22.8 °F 95% 30.14 in 10.0 mi Calm Calm - N/A   Clear
7:15 AM 23.9 °F - 22.5 °F 94% 30.14 in 10.0 mi Calm Calm - N/A   Clear
7:35 AM 23.5 °F - 21.9 °F 94% 30.15 in 10.0 mi Calm Calm - N/A   Clear
7:55 AM 25.0 °F - 23.5 °F 94% 30.15 in 10.0 mi Calm Calm - N/A   Clear
8:15 AM 26.4 °F - 24.8 °F 94% 30.16 in 10.0 mi Calm Calm - N/A   Clear
8:35 AM 29.1 °F - 27.0 °F 92% 30.16 in 10.0 mi Calm Calm - N/A   Clear
8:55 AM 32.2 °F - 28.6 °F 87% 30.16 in 10.0 mi Calm Calm - N/A   Clear
9:15 AM 35.4 °F - 29.7 °F 80% 30.16 in 10.0 mi Calm Calm - N/A   Clear
9:35 AM 38.3 °F - 26.2 °F 62% 30.16 in 10.0 mi Calm Calm - N/A   Clear
9:55 AM 41.2 °F - 23.0 °F 48% 30.15 in 10.0 mi Calm Calm - N/A   Clear
10:15 AM 43.3 °F - 20.3 °F 40% 30.14 in 10.0 mi Calm Calm - N/A   Clear
10:35 AM 45.7 °F 44.4 °F 19.6 °F 35% 30.14 in 10.0 mi SW 3.5 mph - N/A   Clear
10:55 AM 47.1 °F - 18.0 °F 31% 30.13 in 10.0 mi Calm Calm - N/A   Clear
11:15 AM 49.1 °F - 18.1 °F 29% 30.11 in 10.0 mi WSW 4.6 mph - N/A   Clear
11:35 AM 50.4 °F - 18.0 °F 28% 30.10 in 10.0 mi SSW 3.5 mph - N/A   Clear
11:55 AM 52.0 °F - 18.5 °F 27% 30.10 in 10.0 mi SW 5.8 mph - N/A   Clear
12:15 PM 52.5 °F - 19.8 °F 28% 30.08 in 10.0 mi SW 6.9 mph - N/A   Clear
12:35 PM 53.4 °F - 19.8 °F 27% 30.07 in 10.0 mi South 5.8 mph - N/A   Clear
12:55 PM 54.5 °F - 18.7 °F 25% 30.06 in 10.0 mi SSW 6.9 mph - N/A   Clear
1:15 PM 55.0 °F - 20.1 °F 26% 30.05 in 10.0 mi SSW 6.9 mph - N/A   Clear
1:35 PM 55.9 °F - 20.7 °F 25% 30.04 in 10.0 mi SSW 5.8 mph - N/A   Clear
1:55 PM 56.8 °F - 21.4 °F 25% 30.03 in 10.0 mi SSW 8.1 mph - N/A   Clear
2:15 PM 56.1 °F - 21.6 °F 26% 30.04 in 10.0 mi SSW 9.2 mph - N/A   Clear
2:35 PM 54.9 °F - 22.6 °F 29% 30.04 in 7.0 mi SW 11.5 mph - N/A   Clear
2:55 PM 55.0 °F - 22.8 °F 29% 30.03 in 10.0 mi SW 11.5 mph - N/A   Clear
3:15 PM 55.9 °F - 22.3 °F 27% 30.03 in 10.0 mi SSW 10.4 mph - N/A   Clear
3:35 PM 55.2 °F - 21.9 °F 27% 30.03 in 10.0 mi SW 10.4 mph - N/A   Clear
3:55 PM 54.3 °F - 21.9 °F 28% 30.03 in 10.0 mi SSW 11.5 mph - N/A   Clear
4:15 PM 53.8 °F - 22.8 °F 30% 30.03 in 10.0 mi SW 9.2 mph - N/A   Clear
4:35 PM 52.3 °F - 23.5 °F 33% 30.03 in 10.0 mi SSW 8.1 mph - N/A   Clear
4:55 PM 50.7 °F - 23.7 °F 35% 30.04 in 10.0 mi SSW 8.1 mph - N/A   Clear
5:15 PM 49.3 °F - 23.9 °F 37% 30.03 in 10.0 mi SSW 3.5 mph - N/A   Clear
5:35 PM 47.7 °F - 24.4 °F 40% 30.04 in 10.0 mi Calm Calm - N/A   Clear
5:55 PM 46.0 °F - 25.0 °F 44% 30.04 in 10.0 mi Calm Calm - N/A   Clear
6:15 PM 43.2 °F - 25.9 °F 51% 30.04 in 10.0 mi Calm Calm - N/A   Clear
6:35 PM 39.4 °F - 28.4 °F 65% 30.04 in 10.0 mi Calm Calm - N/A   Clear
6:55 PM 39.0 °F - 28.4 °F 66% 30.05 in 10.0 mi Calm Calm - N/A   Clear
7:15 PM 36.3 °F - 29.5 °F 76% 30.05 in 10.0 mi Calm Calm - N/A   Clear
7:35 PM 35.4 °F - 29.8 °F 80% 30.05 in 10.0 mi Calm Calm - N/A   Clear
7:55 PM 34.5 °F - 32.0 °F 90% 30.05 in 10.0 mi Calm Calm - N/A   Clear
8:15 PM 34.7 °F - 32.0 °F 90% 30.05 in 10.0 mi Calm Calm - N/A   Clear
8:35 PM 33.6 °F - 31.5 °F 92% 30.05 in 10.0 mi Calm Calm - N/A   Clear
8:55 PM 33.3 °F - 31.6 °F 94% 30.04 in 10.0 mi Calm Calm - N/A   Clear
9:15 PM 33.6 °F - 30.9 °F 90% 30.04 in 10.0 mi Calm Calm - N/A   Clear
9:55 PM 34.2 °F - 30.9 °F 88% 30.05 in 10.0 mi Calm Calm - N/A   Clear
10:15 PM 35.4 °F - 31.5 °F 85% 30.05 in 10.0 mi Calm Calm - N/A   Clear
10:35 PM 37.6 °F - 31.5 °F 79% 30.05 in 10.0 mi Calm Calm - N/A   Clear
10:55 PM 40.5 °F 37.3 °F 29.8 °F 66% 30.05 in 10.0 mi SW 4.6 mph - N/A   Scattered Clouds
11:15 PM 44.4 °F 40.5 °F 28.0 °F 53% 30.04 in 10.0 mi SW 6.9 mph - N/A   Scattered Clouds
11:35 PM 46.0 °F 42.5 °F 27.5 °F 48% 30.04 in 10.0 mi SW 6.9 mph - N/A   Scattered Clouds
11:55 PM 46.6 °F - 27.1 °F 47% 30.04 in 10.0 mi SW 4.6 mph - N/A   Overcast